User: anonymous
Location: Unspecified
(0.0000°N, 0.0000°E)
Time: 23:40:17
(UTC+00:00)
Language:

AGILE - Orbit

View from above orbital plane
View from above orbital plane
View from above satellite
View from above satellite

Ground track
Ground track

The orbit data is extracted from the following two-line orbital elements,

1 31135U 07013A   14211.43394181  .00003423  00000-0  10719-3 0   181
2 31135 002.4651 343.5195 0017185 262.8789 096.9477 15.20214005402599
Epoch (UTC): 30 July 2014 10:24:52
Eccentricity: 0.0017185
inclination: 2.4651°
perigee height: 493 km
apogee height: 517 km
right ascension of ascending node: 343.5195°
argument of perigee: 262.8789°
revolutions per day: 15.20214005
mean anomaly at epoch: 96.9477°
orbit number at epoch: 40259

The dashed part of the orbit path shows where the satellite is in the earth's shadow,  

DLR